When you browse on this site, cookies collect data to enhance your experience and personalize the content and advertising you see.
Visit our Privacy Policy to learn more. By continuing to use the site, you agree to this use of cookies and data.
  • en Suisse
  • Liste des pays
  • À 7 jours
  • Température de l'eau
  • Carte satellitaire
  • Carte météo
  • Widgets météo
  • user-avatar
    Se connecter

    Météo par heure à Eisenach

    Ce jour, 16 Juillet, Mardi

    Heure Température Précipitation Vent Pression Humidité
    00:00 +10°C° 0 mm 1 m/s 742 mmHg 94%
    01:00 +10°C° 0 mm 1 m/s 742 mmHg 94%
    02:00 +10°C° 0 mm 1 m/s 742 mmHg 92%
    03:00 +11°C° 0 mm 1 m/s 742 mmHg 91%
    04:00 +11°C° 0 mm 1 m/s 742 mmHg 90%
    05:00 +12°C° 0 mm 1 m/s 742 mmHg 88%
    06:00 +13°C° 0 mm 2 m/s 742 mmHg 86%
    07:00 +14°C° 0 mm 2 m/s 742 mmHg 84%
    08:00 +13°C° 0 mm 3 m/s 742 mmHg 82%
    09:00 +14°C° 0 mm 3 m/s 742 mmHg 79%
    10:00 +14°C° 0 mm 3 m/s 743 mmHg 77%
    11:00 +16°C° 0 mm 3 m/s 742 mmHg 75%
    12:00 +17°C° 0 mm 3 m/s 742 mmHg 73%
    13:00 +17°C° 0 mm 3 m/s 742 mmHg 71%
    14:00 +18°C° 0 mm 3 m/s 742 mmHg 70%
    15:00 +19°C° 0 mm 3 m/s 742 mmHg 69%
    16:00 +19°C° 0 mm 3 m/s 742 mmHg 68%
    17:00 +19°C° 0 mm 2 m/s 742 mmHg 70%
    18:00 +18°C° 0 mm 2 m/s 741 mmHg 73%
    19:00 +18°C° 0 mm 2 m/s 741 mmHg 76%
    20:00 +18°C° 0 mm 1 m/s 741 mmHg 81%
    21:00 +15°C° 0 mm 1 m/s 741 mmHg 86%
    22:00 +13°C° 0 mm 0 m/s 742 mmHg 91%
    23:00 +12°C° 0 mm 0 m/s 742 mmHg 92%

    Demain, 17 Juillet, Mercredi

    Heure Température Précipitation Vent Pression Humidité
    00:00 +12°C° 0 mm 0 m/s 742 mmHg 93%
    01:00 +11°C° 0 mm 0 m/s 742 mmHg 95%
    02:00 +11°C° 0 mm 0 m/s 741 mmHg 95%
    03:00 +11°C° 0 mm 0 m/s 741 mmHg 95%
    04:00 +10°C° 0 mm 0 m/s 741 mmHg 96%
    05:00 +12°C° 0 mm 0 m/s 741 mmHg 92%
    06:00 +13°C° 0 mm 0 m/s 741 mmHg 89%
    07:00 +15°C° 0 mm 0 m/s 741 mmHg 85%
    08:00 +16°C° 0 mm 0 m/s 741 mmHg 80%
    09:00 +20°C° 0 mm 1 m/s 741 mmHg 74%
    10:00 +21°C° 0 mm 1 m/s 741 mmHg 68%
    11:00 +21°C° 0 mm 1 m/s 741 mmHg 67%
    12:00 +22°C° 0 mm 1 m/s 740 mmHg 65%
    13:00 +21°C° 0 mm 2 m/s 740 mmHg 63%
    14:00 +23°C° 0.1 mm 2 m/s 740 mmHg 62%
    15:00 +23°C° 0.1 mm 2 m/s 740 mmHg 61%
    16:00 +23°C° 0.1 mm 2 m/s 739 mmHg 60%
    17:00 +21°C° 0 mm 2 m/s 739 mmHg 65%
    18:00 +21°C° 0 mm 2 m/s 739 mmHg 69%
    19:00 +20°C° 0 mm 2 m/s 739 mmHg 74%
    20:00 +18°C° 0 mm 2 m/s 739 mmHg 80%
    21:00 +16°C° 0 mm 1 m/s 739 mmHg 86%
    22:00 +14°C° 0 mm 1 m/s 739 mmHg 93%
    23:00 +14°C° 0 mm 1 m/s 739 mmHg 93%

    Après-demain, 18 Juillet, Jeudi

    Heure Température Précipitation Vent Pression Humidité
    00:00 +12°C° 0 mm 0 m/s 739 mmHg 93%
    01:00 +12°C° 0 mm 0 m/s 739 mmHg 93%
    02:00 +12°C° 0 mm 0 m/s 738 mmHg 93%
    03:00 +12°C° 0 mm 0 m/s 738 mmHg 94%
    04:00 +11°C° 0 mm 0 m/s 738 mmHg 94%
    05:00 +13°C° 0 mm 0 m/s 738 mmHg 90%
    06:00 +14°C° 0 mm 0 m/s 738 mmHg 87%
    07:00 +16°C° 0 mm 0 m/s 738 mmHg 84%
    08:00 +18°C° 0.1 mm 0 m/s 738 mmHg 77%
    09:00 +19°C° 0.1 mm 0 m/s 738 mmHg 71%
    10:00 +23°C° 0.1 mm 1 m/s 738 mmHg 64%
    11:00 +24°C° 0.4 mm 1 m/s 738 mmHg 63%
    12:00 +24°C° 0.4 mm 1 m/s 737 mmHg 62%
    13:00 +25°C° 0.4 mm 1 m/s 737 mmHg 60%
    14:00 +25°C° 0.6 mm 1 m/s 737 mmHg 60%
    15:00 +24°C° 0.6 mm 1 m/s 737 mmHg 60%
    16:00 +24°C° 0.6 mm 1 m/s 737 mmHg 60%
    17:00 +24°C° 0.1 mm 1 m/s 737 mmHg 64%
    18:00 +23°C° 0.1 mm 1 m/s 737 mmHg 68%
    19:00 +22°C° 0.1 mm 1 m/s 737 mmHg 73%
    20:00 +21°C° 0.1 mm 1 m/s 737 mmHg 77%
    21:00 +19°C° 0.1 mm 1 m/s 737 mmHg 80%
    22:00 +18°C° 0.1 mm 1 m/s 737 mmHg 84%
    23:00 +18°C° 0.1 mm 1 m/s 737 mmHg 86%

    19 Juillet, Vendredi

    Heure Température Précipitation Vent Pression Humidité
    00:00 +17°C° 0.1 mm 2 m/s 737 mmHg 87%
    01:00 +17°C° 0.1 mm 2 m/s 737 mmHg 89%
    02:00 +16°C° 0 mm 2 m/s 738 mmHg 89%
    03:00 +16°C° 0 mm 2 m/s 738 mmHg 90%
    04:00 +16°C° 0 mm 1 m/s 738 mmHg 90%
    05:00 +16°C° 0 mm 2 m/s 738 mmHg 89%
    06:00 +17°C° 0 mm 2 m/s 738 mmHg 87%
    07:00 +17°C° 0 mm 2 m/s 738 mmHg 86%
    08:00 +19°C° 0 mm 2 m/s 739 mmHg 79%
    09:00 +20°C° 0 mm 3 m/s 739 mmHg 71%
    10:00 +21°C° 0 mm 3 m/s 739 mmHg 64%
    11:00 +22°C° 0 mm 4 m/s 739 mmHg 59%
    12:00 +23°C° 0 mm 4 m/s 739 mmHg 54%
    13:00 +25°C° 0 mm 4 m/s 739 mmHg 49%
    14:00 +25°C° 0 mm 4 m/s 739 mmHg 48%
    15:00 +26°C° 0 mm 3 m/s 739 mmHg 47%
    16:00 +26°C° 0 mm 3 m/s 739 mmHg 47%
    17:00 +25°C° 0 mm 3 m/s 739 mmHg 54%
    18:00 +22°C° 0 mm 3 m/s 740 mmHg 61%
    19:00 +21°C° 0 mm 3 m/s 740 mmHg 68%
    20:00 +19°C° 0 mm 2 m/s 740 mmHg 75%
    21:00 +18°C° 0 mm 1 m/s 741 mmHg 83%
    22:00 +16°C° 0 mm 1 m/s 741 mmHg 90%
    23:00 +15°C° 0 mm 1 m/s 741 mmHg 90%

    20 Juillet, Samedi

    Heure Température Précipitation Vent Pression Humidité
    00:00 +13°C° 0 mm 0 m/s 741 mmHg 91%
    01:00 +13°C° 0 mm 0 m/s 742 mmHg 91%
    02:00 +13°C° 0 mm 0 m/s 742 mmHg 91%
    03:00 +12°C° 0 mm 0 m/s 742 mmHg 91%
    04:00 +12°C° 0 mm 0 m/s 742 mmHg 91%
    05:00 +14°C° 0 mm 0 m/s 742 mmHg 88%
    06:00 +16°C° 0 mm 1 m/s 742 mmHg 84%
    07:00 +18°C° 0 mm 1 m/s 742 mmHg 80%
    08:00 +20°C° 0 mm 1 m/s 742 mmHg 74%
    09:00 +22°C° 0 mm 1 m/s 742 mmHg 68%
    10:00 +24°C° 0 mm 2 m/s 742 mmHg 62%
    11:00 +25°C° 0 mm 2 m/s 742 mmHg 58%
    12:00 +26°C° 0 mm 2 m/s 742 mmHg 53%
    13:00 +27°C° 0 mm 2 m/s 742 mmHg 49%
    14:00 +27°C° 0 mm 2 m/s 741 mmHg 48%
    15:00 +27°C° 0 mm 2 m/s 741 mmHg 48%
    16:00 +27°C° 0 mm 2 m/s 741 mmHg 48%
    17:00 +26°C° 0 mm 1 m/s 741 mmHg 53%
    18:00 +26°C° 0 mm 1 m/s 741 mmHg 58%
    19:00 +25°C° 0 mm 1 m/s 741 mmHg 63%
    20:00 +23°C° 0 mm 1 m/s 742 mmHg 67%
    21:00 +22°C° 0 mm 1 m/s 742 mmHg 70%
    22:00 +20°C° 0 mm 1 m/s 742 mmHg 73%
    23:00 +17°C° 0 mm 0 m/s 743 mmHg 76%

    21 Juillet, Dimanche

    Heure Température Précipitation Vent Pression Humidité
    00:00 +17°C° 0 mm 0 m/s 743 mmHg 80%
    01:00 +16°C° 0 mm 0 m/s 743 mmHg 83%
    02:00 +15°C° 0 mm 0 m/s 743 mmHg 85%
    03:00 +15°C° 0 mm 0 m/s 743 mmHg 86%
    04:00 +15°C° 0 mm 0 m/s 743 mmHg 87%
    05:00 +16°C° 0 mm 0 m/s 743 mmHg 82%
    06:00 +18°C° 0 mm 0 m/s 744 mmHg 78%
    07:00 +19°C° 0 mm 0 m/s 744 mmHg 73%
    08:00 +21°C° 0 mm 0 m/s 744 mmHg 66%
    09:00 +24°C° 0 mm 0 m/s 744 mmHg 58%
    10:00 +28°C° 0 mm 1 m/s 745 mmHg 51%
    11:00 +28°C° 0 mm 1 m/s 745 mmHg 48%
    12:00 +29°C° 0 mm 1 m/s 745 mmHg 45%
    13:00 +29°C° 0 mm 1 m/s 745 mmHg 42%
    14:00 +29°C° 0 mm 1 m/s 744 mmHg 42%
    15:00 +29°C° 0 mm 1 m/s 744 mmHg 43%
    16:00 +29°C° 0 mm 1 m/s 744 mmHg 44%
    17:00 +28°C° 0 mm 1 m/s 744 mmHg 50%
    18:00 +27°C° 0 mm 1 m/s 744 mmHg 57%
    19:00 +26°C° 0 mm 1 m/s 744 mmHg 63%
    20:00 +24°C° 0 mm 1 m/s 744 mmHg 68%
    21:00 +23°C° 0 mm 1 m/s 744 mmHg 73%
    22:00 +21°C° 0 mm 1 m/s 745 mmHg 78%
    23:00 +20°C° 0 mm 1 m/s 745 mmHg 80%
    Voir plus